Lancaster, PA

2:55 AM EDT on October 18, 2017 (GMT -0400)
Lancaster

Weather History for KLNS - September, 2013

Change the Weather History Date:

Sunday, September 8, 2013

  Actual Average Record
Temperature  
Mean Temperature 69 °F -  
Max Temperature 82 °F 78 °F 93 °F (2015)
Min Temperature 57 °F 57 °F 43 °F (1984)
Cooling Degree Days 4    
Growing Degree Days 19 (Base 50)    
Moisture  
Dew Point 58 °F    
Average Humidity 68    
Maximum Humidity 90    
Minimum Humidity 48    
Precipitation  
Precipitation 0.00 in - - ()
Sea Level Pressure  
Sea Level Pressure 29.94 in    
Wind  
Wind Speed 5 mph (NNW)    
Max Wind Speed 16 mph    
Max Gust Speed 21 mph    
Visibility 9 miles    
Events Rain    
Averages and records for this station are not official NWS values.
T = Trace of Precipitation, MM = Missing Value Source: NWS Daily Summary

Daily Weather History Graph

Daily Weather History Graph

Search for Another Location

Airport or City:

Trip Planner

Search our weather history database for the weather conditions in past years. The results will help you decide how hot, cold, wet, or windy it might be!

Date:

Astronomy

Sep. 08, 2013 Rise Set
Actual Time 6:39 AM EDT 7:25 PM EDT
Civil Twilight 6:12 AM EDT 7:52 PM EDT
Nautical Twilight 5:39 AM EDT 8:24 PM EDT
Astronomical Twilight 5:05 AM EDT 8:58 PM EDT
Moon 9:55 AM EDT (9/8) 8:58 PM EDT (9/8)
Length of Visible Light 13h 40m
Length of Day
12h 45m
Waxing Crescent, 11% of the Moon is Illuminated
Sep 8
Waxing Crescent
Sep 12
First Quarter
Sep 19
Full
Sep 26
Last Quarter
Oct 4
New

Hourly Weather History & Observations

Time (EDT) Temp. Heat Index Dew Point Humidity Pressure Visibility Wind Dir Wind Speed Gust Speed Precip Events Conditions
12:53 AM 66.0 °F - 60.1 °F 81% 29.92 in 10.0 mi West 3.5 mph - N/A   Overcast
1:53 AM 66.0 °F - 60.1 °F 81% 29.92 in 10.0 mi West 4.6 mph - N/A   Overcast
2:53 AM 64.9 °F - 59.0 °F 81% 29.91 in 8.0 mi Calm Calm - 0.00 in Rain Light Rain
3:53 AM 64.0 °F - 61.0 °F 90% 29.90 in 6.0 mi Calm Calm - 0.00 in   Overcast
4:53 AM 64.0 °F - 61.0 °F 90% 29.90 in 6.0 mi Calm Calm - N/A   Overcast
5:53 AM 63.0 °F - 60.1 °F 90% 29.89 in 7.0 mi Calm Calm - N/A   Partly Cloudy
6:53 AM 62.1 °F - 59.0 °F 90% 29.89 in 5.0 mi Calm Calm - N/A   Clear
7:53 AM 64.9 °F - 60.1 °F 84% 29.90 in 6.0 mi West 4.6 mph - N/A   Haze
8:53 AM 69.1 °F - 59.0 °F 70% 29.89 in 10.0 mi West 9.2 mph - N/A   Clear
9:53 AM 72.0 °F - 60.1 °F 66% 29.89 in 10.0 mi WNW 11.5 mph - N/A   Mostly Cloudy
10:53 AM 77.0 °F - 62.1 °F 60% 29.90 in 10.0 mi WNW 10.4 mph - N/A   Scattered Clouds
11:53 AM 81.0 °F 82.2 °F 63.0 °F 54% 29.89 in 10.0 mi NW 10.4 mph 17.3 mph N/A   Partly Cloudy
12:53 PM 78.1 °F - 63.0 °F 60% 29.90 in 10.0 mi NW 9.2 mph - N/A   Mostly Cloudy
1:53 PM 77.0 °F - 62.1 °F 60% 29.91 in 10.0 mi North 8.1 mph - N/A   Overcast
2:53 PM 78.1 °F - 62.1 °F 58% 29.90 in 10.0 mi Variable 3.5 mph - N/A   Overcast
3:53 PM 81.0 °F 81.7 °F 61.0 °F 50% 29.90 in 10.0 mi North 9.2 mph - N/A   Scattered Clouds
4:53 PM 80.1 °F 80.7 °F 59.0 °F 48% 29.92 in 10.0 mi North 16.1 mph 20.7 mph N/A   Partly Cloudy
5:53 PM 77.0 °F - 57.0 °F 50% 29.94 in 10.0 mi North 13.8 mph - N/A   Clear
6:53 PM 73.0 °F - 55.9 °F 55% 29.96 in 10.0 mi North 11.5 mph - N/A   Clear
7:53 PM 69.1 °F - 51.1 °F 53% 29.99 in 10.0 mi North 8.1 mph - N/A   Clear
8:53 PM 66.0 °F - 48.0 °F 52% 30.02 in 10.0 mi North 9.2 mph - N/A   Clear
9:53 PM 62.1 °F - 48.9 °F 62% 30.05 in 10.0 mi NNE 5.8 mph - N/A   Clear
10:53 PM 57.0 °F - 48.9 °F 74% 30.08 in 10.0 mi NNE 4.6 mph - N/A   Clear
11:53 PM 57.0 °F - 46.9 °F 69% 30.09 in 10.0 mi ENE 3.5 mph - N/A   Clear